Date,TemperatureHighF,TemperatureAvgF,TemperatureLowF,DewpointHighF,DewpointAvgF,DewpointLowF,HumidityHigh,HumidityAvg,HumidityLow,PressureMaxIn,PressureMinIn,WindSpeedMaxMPH,WindSpeedAvgMPH,GustSpeedMaxMPH,PrecipitationSumIn
2014-1-1,72,70,67,15,13,10,13,11,9,30.15,30.09,2,1,6,0.00
2014-1-2,73,70,67,24,21,19,16,16,16,30.14,30.04,2,1,6,0.00
2014-1-4,73,61,45,34,29,25,46,32,20,30.02,29.95,6,2,10,0.00
2014-1-5,49,46,41,29,28,27,58,51,45,30.07,30.06,1,1,4,0.00
2014-1-6,70,60,52,29,28,28,40,32,21,30.21,30.16,3,1,8,0.00
2014-1-7,50,50,50,27,27,27,41,41,41,30.19,30.19,0,0,2,0.00
2014-1-8,55,53,37,42,40,32,81,63,60,30.17,30.13,4,3,10,0.00
2014-1-24,59,59,59,28,28,28,30,30,30,29.99,29.99,2,2,7,0.00
2014-1-25,46,46,46,27,27,27,47,47,47,30.26,30.26,1,1,3,0.00
2014-1-28,62,62,62,44,44,44,52,52,52,30.18,30.18,5,5,10,0.00
2014-1-29,52,52,52,44,44,44,74,74,74,30.23,30.23,1,1,1,0.00
2014-1-30,54,54,54,54,54,54,100,100,100,29.99,29.99,0,0,0,0.00
2014-1-31,45,45,45,40,40,40,84,84,84,29.93,29.93,1,1,3,0.00
2014-2-1,37,37,37,35,35,35,93,93,93,30.05,30.05,1,1,2,0.00
2014-2-3,50,50,50,38,38,38,63,63,63,30.00,30.00,4,4,11,0.00
2014-2-4,40,40,40,35,35,35,85,85,85,30.04,30.04,0,0,1,0.00
2014-2-5,43,43,43,33,33,33,68,68,68,30.16,30.16,2,2,7,0.00
2014-2-6,46,46,46,46,46,46,99,99,99,29.91,29.91,1,1,4,0.00
2014-2-7,46,46,46,45,45,45,96,96,96,30.03,30.03,0,0,1,0.00
2014-2-8,49,49,49,46,46,46,88,88,88,30.15,30.15,1,1,2,0.00
2014-2-9,59,55,50,49,48,48,97,80,67,30.22,30.14,1,1,5,0.00
2014-2-10,52,52,52,52,52,52,100,100,100,30.15,30.15,1,1,3,0.00
2014-2-11,41,41,41,41,41,41,100,100,100,30.21,30.21,0,0,3,0.00
2014-2-12,40,40,40,32,32,32,74,74,74,30.21,30.21,1,1,1,0.00
2014-2-14,44,44,44,40,40,40,87,87,87,30.12,30.12,1,1,4,0.00
2014-2-15,49,49,49,47,47,47,92,92,92,30.04,30.04,1,1,3,0.00
2014-2-16,51,50,48,51,50,48,100,100,100,30.16,30.09,1,1,3,0.00
2014-2-19,46,46,46,36,36,36,69,69,69,30.10,30.10,0,0,2,0.00
2014-2-20,37,37,37,36,36,36,96,96,96,30.15,30.15,0,0,1,0.00
2014-2-21,64,64,64,34,34,34,32,32,32,29.99,29.99,6,6,11,0.00
2014-2-25,50,50,50,36,36,36,60,60,60,29.97,29.97,2,2,4,0.00
2014-2-26,47,47,47,41,41,41,78,78,78,29.95,29.95,0,0,2,0.00
2014-2-27,49,49,49,49,49,49,98,98,98,29.83,29.83,1,1,3,0.00
2014-2-28,53,49,46,51,47,45,97,94,92,29.49,29.39,4,2,7,0.00
2014-3-1,49,49,47,47,46,45,92,91,89,29.49,29.46,5,4,12,0.00
2014-3-2,52,52,52,46,46,46,82,82,82,29.83,29.83,2,2,7,0.00
2014-3-3,43,43,43,42,42,42,97,97,97,30.17,30.17,0,0,2,0.00
2014-3-4,51,51,51,51,51,51,99,99,99,30.10,30.10,1,1,3,0.00
2014-3-5,69,58,48,49,48,47,97,74,50,30.10,30.05,3,2,9,0.00
2014-3-6,58,56,53,53,52,52,100,90,80,30.13,30.09,1,0,3,0.00
2014-3-7,46,46,46,43,43,43,90,90,90,30.18,30.18,1,1,2,0.00
2014-3-8,41,41,41,39,39,39,93,93,93,30.13,30.13,0,0,1,0.00
2014-3-9,72,60,49,41,35,26,75,45,18,30.21,30.10,5,3,8,0.00
2014-3-11,49,49,49,31,31,31,49,49,49,30.02,30.02,3,3,6,0.00
2014-3-12,49,49,49,31,31,31,49,49,49,30.02,30.02,3,3,6,0.00
2014-3-13,69,68,68,26,24,22,20,18,17,30.02,29.99,4,4,11,0.00
2014-3-16,81,81,81,41,41,41,24,24,24,30.25,30.25,4,4,9,0.00
2014-3-18,64,64,64,27,27,27,24,24,24,29.92,29.92,3,3,8,0.00
2014-3-20,50,50,50,35,35,35,58,58,58,29.99,29.99,0,0,1,0.00
2014-3-26,50,48,47,45,44,42,95,85,73,29.90,29.87,1,1,5,0.00
2014-3-27,56,55,54,41,41,41,60,59,58,30.11,30.10,3,2,9,0.00
2014-3-28,59,59,59,46,46,46,64,64,64,30.12,30.12,3,3,6,0.00
2014-3-29,52,50,49,49,48,48,97,94,91,30.02,30.01,4,3,13,0.00
2014-3-30,47,45,44,44,43,40,99,93,79,30.11,30.05,2,1,6,0.00
2014-3-31,51,44,37,43,40,37,100,88,66,29.97,29.83,2,1,7,0.00
2014-4-1,50,50,50,38,38,38,61,61,61,29.90,29.90,3,3,7,0.00
2014-4-2,40,39,39,40,39,39,100,99,99,29.92,29.87,1,1,4,0.00
2014-4-4,48,48,48,40,40,40,74,74,74,30.04,30.04,2,2,13,0.00
2014-4-6,73,73,73,45,45,45,37,37,37,30.15,30.15,3,3,9,0.00
2014-4-7,51,51,51,47,47,47,86,86,86,30.17,30.17,1,1,4,0.00
2014-4-8,81,80,78,49,44,38,36,29,22,30.11,30.09,5,4,10,0.00
2014-4-10,78,78,77,47,44,41,34,31,28,30.01,29.96,3,2,8,0.00
2014-4-13,67,60,46,49,48,44,92,66,52,30.01,29.98,3,2,11,0.00
2014-4-17,52,52,52,47,47,47,85,85,85,29.90,29.90,2,2,4,0.00
2014-4-18,66,52,44,50,46,43,98,82,56,29.90,29.89,4,2,9,0.00
2014-4-19,69,58,51,44,38,21,77,51,16,30.12,30.06,5,2,12,0.00
2014-4-20,42,42,42,42,42,42,98,98,98,30.11,30.11,0,0,1,0.00
2014-4-23,59,55,51,40,36,32,49,49,48,30.12,30.08,7,6,16,0.00
2014-4-24,67,67,67,39,39,39,36,36,36,30.05,30.05,4,4,9,0.00
2014-4-25,50,49,48,49,48,46,99,94,89,30.02,29.82,3,2,9,0.00
2014-4-26,45,45,45,38,38,38,75,75,75,30.06,30.06,1,1,4,0.00
2014-4-27,61,56,49,46,45,44,82,68,56,30.11,30.05,5,3,11,0.00
2014-4-28,63,54,49,46,44,43,80,70,54,30.19,30.14,3,2,7,0.00
2014-4-29,82,82,82,36,36,36,19,19,19,30.15,30.15,3,3,7,0.00
2014-4-30,84,73,50,44,40,38,79,39,19,30.11,30.10,3,2,7,0.00
2014-5-14,88,88,88,31,31,31,13,13,13,30.17,30.17,2,2,4,0.00
2014-5-15,85,85,85,37,37,37,18,18,18,30.14,30.14,2,2,7,0.00
2014-5-16,67,67,67,37,37,37,33,33,33,30.04,30.04,1,1,6,0.00
2014-5-19,51,51,51,43,43,43,73,73,73,29.97,29.97,2,2,10,0.00
2014-5-20,60,60,60,47,47,47,63,63,63,30.01,30.01,5,5,14,0.00
2014-5-21,49,49,49,47,47,47,93,93,93,30.01,30.01,1,1,3,0.00
2014-5-24,70,62,54,50,48,45,72,60,50,30.03,30.00,4,3,7,0.00
2014-5-27,79,79,79,6,6,6,6,6,6,30.06,30.06,3,3,9,0.00
2014-5-29,80,76,73,31,30,29,21,18,15,29.95,29.95,4,4,11,0.00
2014-5-30,67,59,41,44,38,22,47,46,44,29.94,29.92,4,2,11,0.00
2014-5-31,65,55,44,42,39,36,88,60,42,29.99,29.96,2,1,6,0.00
2014-6-1,81,69,45,43,38,32,59,36,22,29.93,29.85,3,2,13,0.00
2014-6-2,63,54,48,48,40,36,62,60,58,29.90,29.86,3,1,7,0.00
2014-6-3,76,65,48,45,43,40,87,49,31,29.93,29.87,5,4,11,0.00
2014-6-4,83,71,59,40,35,32,36,28,20,29.90,29.89,5,3,10,0.00
2014-6-5,51,51,50,35,34,32,54,52,49,29.89,29.88,0,0,1,0.00
2014-6-6,78,58,47,26,20,17,30,24,15,29.86,29.84,3,1,5,0.00
2014-6-7,50,50,50,36,36,36,59,59,59,29.85,29.85,0,0,2,0.00
2014-6-9,60,60,60,40,40,40,48,48,48,29.80,29.80,0,0,1,0.00
2014-6-10,84,83,82,51,51,51,35,34,32,29.81,29.81,3,3,11,0.00
2014-6-11,78,62,50,53,51,50,97,73,43,29.88,29.86,4,2,8,0.00
2014-6-12,52,52,52,43,43,43,72,72,72,30.00,30.00,0,0,1,0.00
2014-6-13,43,43,43,36,36,36,76,76,76,29.98,29.98,0,0,2,0.00
2014-6-14,82,65,47,39,35,28,46,34,18,29.98,29.90,5,2,13,0.00
2014-6-15,61,56,50,46,42,30,88,62,42,29.91,29.86,4,3,11,0.00
2014-6-16,41,41,41,40,40,40,93,93,93,29.91,29.91,1,1,2,0.00
2014-6-17,72,67,63,39,37,34,34,33,30,29.94,29.93,5,4,13,0.00
2014-6-18,83,67,50,35,35,34,57,35,17,29.99,29.95,5,3,12,0.00
2014-6-20,50,50,50,22,21,20,33,32,30,30.00,29.99,0,0,1,0.00
2014-6-21,50,48,46,26,20,13,38,32,26,29.97,29.94,0,0,2,0.00
2014-6-23,69,69,69,42,42,42,38,38,38,29.94,29.94,3,3,7,0.00
2014-6-25,73,73,73,53,53,53,49,49,49,29.97,29.97,4,4,9,0.00
2014-6-26,71,61,53,50,47,44,88,67,38,30.02,29.98,3,2,10,0.00
2014-6-27,79,61,48,56,50,45,89,70,37,30.00,29.98,5,1,13,0.00
2014-6-28,82,63,58,56,37,-100,93,52,21,30.00,29.95,2,2,7,0.00
2014-7-2,67,67,67,51,51,51,56,56,56,29.92,29.92,5,5,8,0.00
2014-7-3,83,83,83,40,40,40,22,22,22,29.99,29.99,4,4,9,0.00
2014-7-8,86,82,56,53,53,48,75,38,32,29.96,29.94,3,2,10,0.00
2014-7-9,74,64,56,54,51,48,75,64,49,29.98,29.90,3,2,7,0.00
2014-7-18,61,61,61,54,54,54,78,78,78,29.99,29.99,1,1,2,0.00
2014-7-19,55,55,55,50,50,50,84,84,84,30.00,30.00,0,0,0,0.00
2014-7-21,59,59,59,56,56,56,89,89,89,30.02,30.02,2,2,4,0.00
2014-7-25,82,78,74,50,50,49,43,38,32,29.94,29.93,2,2,5,0.00
2014-7-27,91,91,91,51,51,51,26,26,26,30.01,30.01,5,5,11,0.00
2014-7-28,90,76,63,54,45,31,50,34,17,30.09,30.03,4,2,10,0.00
2014-8-3,58,58,58,49,49,49,70,70,70,29.99,29.99,1,1,2,0.00
2014-8-4,58,58,58,51,51,51,76,76,76,30.00,30.00,0,0,0,0.00
2014-8-5,53,53,53,52,52,52,97,97,97,30.03,30.03,1,1,2,0.00
2014-8-6,77,77,77,55,55,55,47,47,47,30.03,30.03,2,2,6,0.00
2014-8-7,53,53,53,48,48,48,83,83,83,30.00,30.00,1,1,1,0.00
2014-8-9,84,82,80,49,46,42,33,29,23,30.00,29.98,4,4,9,0.00
2014-8-10,73,73,73,53,53,53,50,50,50,29.99,29.99,5,5,10,0.00
2014-8-11,74,74,74,48,48,48,40,40,40,29.98,29.98,5,5,10,0.00
2014-8-20,78,78,78,54,54,54,44,44,44,29.95,29.95,3,3,9,0.00
2014-8-21,50,50,50,48,48,48,94,94,94,29.93,29.93,0,0,0,0.00
2014-8-22,81,59,54,50,42,39,64,55,34,29.98,29.97,4,1,11,0.00
2014-8-24,57,57,57,50,50,50,77,77,77,29.94,29.94,3,3,7,0.00
2014-8-25,60,53,47,50,48,47,97,82,69,29.92,29.90,1,1,3,0.00
2014-8-26,76,54,45,53,45,41,89,76,46,29.98,29.97,2,1,6,0.00
2014-8-27,86,63,52,42,42,41,70,54,21,30.09,30.04,4,1,8,0.00
2014-8-28,83,83,83,52,52,52,34,34,34,30.02,30.02,5,5,13,0.00
2014-8-30,88,86,85,39,34,30,18,16,14,29.98,29.98,5,5,12,0.00
2014-8-31,85,76,69,46,38,33,45,28,19,29.95,29.90,3,2,8,0.00
2014-9-1,89,89,89,52,52,52,28,28,28,29.86,29.86,5,5,12,0.00
2014-9-2,79,76,71,55,51,47,57,44,34,29.89,29.82,4,4,9,0.00
2014-9-4,52,51,50,46,45,44,79,79,79,29.76,29.76,1,0,1,0.00
2014-9-5,65,56,48,50,48,47,96,79,58,29.90,29.89,3,2,7,0.00
2014-9-7,69,69,69,37,37,37,30,30,30,29.90,29.90,3,3,5,0.00
2014-9-8,53,47,43,46,44,43,100,91,77,29.88,29.87,2,1,2,0.00
2014-9-9,85,85,85,38,38,38,19,19,19,29.97,29.97,3,3,9,0.00
2014-9-26,70,70,70,44,44,44,39,39,39,29.95,29.95,3,3,8,0.00
2014-9-27,62,57,54,53,52,51,96,85,68,29.98,29.92,3,2,7,0.00
2014-9-28,56,56,55,51,50,49,86,80,75,29.97,29.94,3,2,5,0.00
2014-9-29,77,63,48,51,50,47,96,65,40,30.03,29.98,3,2,14,0.00
2014-9-30,70,54,46,54,47,43,88,79,56,30.03,29.90,6,2,12,0.00
2014-10-1,81,70,58,37,36,36,44,32,21,29.96,29.92,5,3,12,0.00
2014-10-2,66,60,53,35,31,29,49,34,28,30.04,29.99,2,2,4,0.00
2014-10-3,94,81,55,33,31,29,44,19,10,30.13,30.07,4,3,9,0.00
2014-10-4,95,84,67,33,28,21,28,16,7,30.00,30.00,2,1,7,0.00
2014-10-6,94,94,94,24,24,24,8,8,8,0.00,40.00,5,5,13,0.00
2014-10-7,91,73,66,31,27,18,27,21,7,29.95,29.90,5,1,10,0.00
2014-10-8,90,71,57,37,34,30,41,29,12,29.95,29.92,5,2,15,0.00
2014-10-9,80,80,80,30,30,30,16,16,16,29.99,29.99,3,3,12,0.00
2014-10-10,49,49,49,35,35,35,60,60,60,30.03,30.03,0,0,2,0.00
2014-10-11,85,72,47,43,40,30,50,34,23,30.06,30.02,6,3,12,0.00
2014-10-12,53,53,53,40,40,40,61,61,61,30.01,30.01,0,0,0,0.00
2014-10-13,89,73,56,44,35,24,37,26,16,30.00,29.96,4,2,9,0.00
2014-10-14,79,74,51,43,43,42,72,35,28,29.92,29.85,3,3,7,0.00
2014-10-15,67,61,51,52,49,42,78,67,56,30.03,29.92,5,2,11,0.00
2014-10-16,66,59,51,49,45,43,78,63,43,30.05,30.03,2,1,5,0.00
2014-10-17,63,63,63,44,44,44,50,50,50,30.00,30.00,2,2,4,0.00
2014-10-18,50,47,45,43,42,41,90,82,72,30.02,29.99,0,0,2,0.00
2014-10-19,74,61,50,51,49,48,90,70,44,29.94,29.89,2,1,5,0.00
2014-10-20,49,49,49,48,48,48,95,95,95,29.97,29.97,2,2,4,0.00
2014-10-21,45,45,45,41,41,41,84,84,84,30.06,30.06,0,0,2,0.00
2014-10-22,46,46,46,40,40,40,81,81,81,30.05,30.05,1,1,3,0.00
2014-10-23,77,66,45,44,42,34,66,43,31,30.08,30.01,3,2,8,0.00
2014-10-24,66,66,66,52,52,52,61,61,61,29.91,29.91,1,1,3,0.00
2014-10-25,65,62,60,49,48,48,66,62,58,30.09,30.09,3,3,11,0.00
2014-10-27,67,67,67,35,35,35,31,31,31,29.99,29.99,6,6,13,0.00
2014-10-28,60,56,51,40,39,38,61,53,47,30.12,30.10,1,1,4,0.00
2014-10-29,86,76,63,40,39,37,39,29,20,30.11,30.02,5,3,7,0.00
2014-10-30,72,69,53,41,38,37,64,34,28,29.95,29.93,3,3,8,0.00
2014-10-31,53,52,50,52,49,41,99,94,64,29.93,29.79,2,1,6,0.00
2014-11-1,52,52,52,43,43,43,70,70,70,29.94,29.94,1,1,4,0.00
2014-11-2,56,50,46,48,46,42,95,87,59,30.16,30.06,2,1,6,0.00
2014-11-3,65,50,38,39,37,35,99,66,33,30.25,30.17,3,2,10,0.00
2014-11-4,71,69,66,39,37,33,33,31,29,30.28,30.20,4,3,10,0.00
2014-11-5,57,53,49,42,40,36,66,61,58,30.18,30.13,2,1,4,0.00
2014-11-6,76,59,50,48,43,40,76,58,28,30.23,30.17,3,1,7,0.00
2014-11-7,69,69,69,41,41,41,36,36,36,30.21,30.13,3,3,6,0.00
2014-11-8,81,66,53,47,42,36,73,48,20,30.13,30.04,4,3,8,0.00
2014-11-9,59,56,53,38,36,34,56,48,39,30.06,30.04,3,1,7,0.00
2014-11-10,49,48,47,46,44,40,95,87,73,29.87,29.84,0,0,1,0.00
2014-11-11,56,52,47,48,46,45,92,80,66,29.96,29.86,3,2,5,0.00
2014-11-12,64,53,50,47,44,42,84,74,50,30.03,29.97,1,1,6,0.00
2014-11-13,61,58,56,59,56,53,92,91,90,30.04,30.04,2,1,4,0.00
2014-11-14,54,54,53,53,50,47,99,88,78,30.08,30.08,1,0,2,0.00
2014-11-15,50,50,50,45,45,45,82,82,82,30.10,30.10,1,1,3,0.00
2014-11-16,42,42,42,40,40,40,95,95,95,30.16,30.16,0,0,1,0.00
2014-11-17,55,51,47,36,34,31,52,50,49,30.22,30.12,2,1,3,0.00
2014-11-18,49,47,45,27,26,26,48,44,40,30.10,30.09,3,1,5,0.00
2014-11-19,63,63,63,9,9,9,12,12,12,30.07,30.07,3,3,9,0.00
2014-11-20,52,52,51,51,50,49,96,95,94,30.11,30.00,1,1,3,0.00
2014-11-21,61,52,44,44,43,42,100,74,48,30.06,30.04,3,2,8,0.00
2014-11-22,55,49,42,55,49,41,100,99,97,30.16,30.15,1,1,3,0.00
2014-11-23,46,46,46,46,46,46,100,100,100,30.22,30.22,2,2,4,0.00
2014-11-24,46,42,37,35,34,32,93,75,57,30.36,30.28,2,1,4,0.00
2014-11-25,50,50,49,35,31,26,57,49,40,30.41,30.36,3,1,6,0.00
2014-11-26,51,49,47,38,36,33,62,59,57,30.34,30.24,2,1,4,0.00
2014-11-27,59,52,46,37,36,35,70,56,41,30.24,30.10,1,1,3,0.00
2014-11-28,41,41,41,23,23,23,50,50,50,30.08,30.08,0,0,2,0.00
2014-11-29,35,35,35,27,27,27,74,74,74,29.88,29.88,1,1,3,0.00
2014-11-30,47,47,47,40,40,40,75,75,75,29.78,29.78,1,1,3,0.00
2014-12-1,52,52,52,49,49,49,88,88,88,30.03,30.03,1,1,4,0.00
2014-12-2,54,54,54,50,50,50,86,86,86,29.97,29.97,1,1,4,0.00
2014-12-3,56,56,56,50,50,50,81,81,81,29.79,29.79,5,5,11,0.00
2014-12-4,53,53,53,53,53,53,100,100,100,29.92,29.92,1,1,2,0.00
2014-12-5,50,50,50,50,50,50,100,100,100,30.03,30.03,1,1,3,0.00
2014-12-6,51,51,51,51,51,51,100,100,100,30.12,30.12,0,0,2,0.00
2014-12-7,52,52,52,49,49,49,90,90,90,30.23,30.23,2,2,4,0.00
2014-12-8,43,43,43,42,42,42,98,98,98,30.17,30.17,1,1,2,0.00
2014-12-9,59,55,51,53,52,51,100,91,82,30.16,30.11,1,1,2,0.00
2014-12-10,49,49,49,48,48,48,98,98,98,30.08,30.08,3,3,5,0.00
2014-12-11,59,58,58,53,50,47,84,75,66,29.86,29.61,4,2,9,0.00
2014-12-12,47,46,45,45,45,45,100,97,92,29.96,29.63,2,1,5,0.00
2014-12-13,45,42,39,40,40,39,100,91,83,30.15,30.07,2,1,3,0.00
2014-12-14,45,43,41,40,40,39,92,85,80,30.11,29.99,2,1,4,0.00
2014-12-15,43,43,43,40,40,40,88,88,88,29.97,29.97,1,1,3,0.00
2014-12-16,46,46,46,46,46,46,100,100,100,29.95,29.95,2,2,4,0.00
2014-12-17,44,44,44,44,44,44,99,99,99,29.94,29.94,0,0,2,0.00
2014-12-18,45,45,45,43,43,43,92,92,92,30.07,30.07,1,1,3,0.00
2014-12-19,45,45,45,44,44,44,98,98,98,30.17,30.17,3,3,5,0.00
2014-12-20,50,50,50,50,50,50,100,100,100,30.17,30.17,0,0,1,0.00
2014-12-21,50,50,50,48,48,48,96,96,96,30.28,30.28,0,0,1,0.00
2014-12-22,50,50,50,50,50,50,100,100,100,30.29,30.29,1,1,2,0.00
2014-12-23,45,45,45,45,45,45,100,100,100,30.19,30.19,0,0,2,0.00
2014-12-24,44,44,44,42,42,42,90,90,90,30.13,30.13,1,1,3,0.00
2014-12-25,48,40,34,39,33,27,96,78,49,30.04,29.99,5,2,12,0.00
2014-12-26,50,36,29,27,26,23,92,72,34,30.19,30.05,3,1,6,0.00
2014-12-27,51,39,30,37,30,26,85,74,48,30.32,30.20,2,2,7,0.00
2014-12-28,34,33,32,34,33,32,98,98,97,30.31,30.28,0,0,1,0.00
2014-12-29,45,40,34,40,36,32,93,87,81,30.16,30.12,3,2,9,0.00
2014-12-30,44,40,30,36,32,28,98,76,59,30.08,30.02,5,2,11,0.00
2014-12-31,46,38,27,17,13,9,64,40,21,30.10,30.08,3,2,7,0.00
2015-1-1,26,26,26,17,17,17,69,69,69,30.03,30.03,1,1,3,0.00
2015-1-2,51,35,26,30,24,20,79,66,45,30.11,30.07,3,1,7,0.00